Location: Alfortville
(48.8058°N, 2.4204°E)
Time: 04:13:44
(UTC+00:00)

USA 229 DEB - Pass Details

Date: 02 June 2022
Orbit: 934 x 1278 km, 63.4° (Epoch: 24 May)

Event Time Altitude Azimuth Distance (km) Brightness Sun altitude
Rises 20:52:26 0° 315° (NW) 3,891 9.0 -8.8°
Reaches altitude 10° 20:55:10 10° 322° (NW) 2,984 7.7 -9.1°
Maximum altitude 21:02:00 45° 34° (NE) 1,564 4.7 -9.8°
Drops below altitude 10° 21:09:20 10° 105° (ESE) 3,197 5.7 -10.6°
Enters shadow 21:10:35 - 109° (ESE) 3,607 6.0 -10.7°
